Grand Island, NE

11:13 PM CST on January 23, 2017 (GMT -0600)
Central Nebraska Regional

Weather History for KGRI - March, 2013

Change the Weather History Date:

Saturday, March 9, 2013

  Actual Average Record
Temperature  
Mean Temperature 49 °F 37 °F  
Max Temperature 66 °F 48 °F 80 °F (1904)
Min Temperature 31 °F 26 °F -4 °F (1912)
Degree Days  
Heating Degree Days 16 28  
Month to date heating degree days 281 268  
Since 1 July heating degree days 4750 5029  
Cooling Degree Days 0 0  
Month to date cooling degree days 0 0  
Year to date cooling degree days 0 0  
Moisture  
Dew Point 42 °F    
Average Humidity 80    
Maximum Humidity 100    
Minimum Humidity 60    
Precipitation  
Precipitation 0.36 in 0.05 in 1.08 in (2010)
Month to date precipitation 0.36 0.39  
Year to date precipitation 1.49 1.60  
Snow  
Snow T in 0.20 in 3.00 in (1933)
Month to date snowfall T 1.7  
Since 1 July snowfall 21.4 23.8  
Snow Depth 0.00 in    
Sea Level Pressure  
Sea Level Pressure 29.65 in    
Wind  
Wind Speed 20 mph (ESE)    
Max Wind Speed 35 mph    
Max Gust Speed 41 mph    
Visibility 5 miles    
Events Fog , Rain , Snow , Thunderstorm    
T = Trace of Precipitation, MM = Missing Value Source: NWS Daily Summary

Daily Weather History Graph

Daily Weather History Graph

Search for Another Location

Airport or City:

Trip Planner

Search our weather history database for the weather conditions in past years. The results will help you decide how hot, cold, wet, or windy it might be!

Date:

Astronomy

Mar. 09, 2013 Rise Set
Actual Time 6:54 AM CST 6:33 PM CST
Civil Twilight 6:26 AM CST 7:01 PM CST
Nautical Twilight 5:55 AM CST 7:32 PM CST
Astronomical Twilight 5:23 AM CST 8:05 PM CST
Moon 5:19 AM CST (3/9) 4:36 PM CST (3/9)
Length of Visible Light 12h 34m
Length of Day
11h 39m
Waning Crescent, 5% of the Moon is Illuminated
Mar 9
Waning Crescent
Mar 11
New
Mar 19
First Quarter
Mar 27
Full
Apr 2
Last Quarter

Hourly Weather History & Observations

Time (CST) Temp. Windchill Dew Point Humidity Pressure Visibility Wind Dir Wind Speed Gust Speed Precip Events Conditions
12:39 AM 48.2 °F - 46.4 °F 93% 29.78 in 8.0 mi SSE 20.7 mph 25.3 mph N/A   Overcast
12:53 AM 48.0 °F - 46.0 °F 93% 29.79 in 5.0 mi SSE 21.9 mph 29.9 mph N/A   Overcast
1:00 AM 48.2 °F - 46.4 °F 93% 29.78 in 5.0 mi SSE 21.9 mph 29.9 mph N/A   Overcast
1:53 AM 46.9 °F - 46.0 °F 97% 29.77 in 3.0 mi SSE 20.7 mph 25.3 mph 0.00 in   Overcast
2:53 AM 46.9 °F - 46.0 °F 97% 29.73 in 4.0 mi SSE 16.1 mph 26.5 mph N/A   Overcast
3:53 AM 46.9 °F - 46.0 °F 97% 29.68 in 4.0 mi SE 16.1 mph - N/A   Overcast
4:50 AM 46.4 °F 39.0 °F 46.4 °F 100% 29.67 in 2.5 mi SSE 19.6 mph - 0.00 in   Overcast
4:53 AM 46.9 °F - 46.9 °F 100% 29.67 in 2.5 mi SSE 17.3 mph 24.2 mph 0.00 in   Overcast
5:53 AM 48.0 °F - 48.0 °F 100% 29.65 in 2.5 mi SSE 12.7 mph - N/A   Overcast
6:10 AM 48.2 °F - 48.2 °F 100% 29.65 in 1.2 mi SSE 16.1 mph - N/A   Overcast
6:26 AM 48.2 °F - 48.2 °F 100% 29.64 in 0.8 mi SSE 16.1 mph - N/A   Overcast
6:53 AM 48.0 °F - 48.0 °F 100% 29.62 in 0.8 mi SE 12.7 mph 24.2 mph N/A   Overcast
7:29 AM 48.2 °F - 48.2 °F 100% 29.62 in 0.2 mi SSE 12.7 mph - N/A Fog Fog
7:37 AM 48.2 °F - 48.2 °F 100% 29.61 in 0.2 mi SSE 13.8 mph - N/A Fog Fog
7:53 AM 48.0 °F - 48.0 °F 100% 29.62 in 0.2 mi SSE 13.8 mph - N/A Fog Fog
8:53 AM 48.9 °F - 48.9 °F 100% 29.62 in 0.2 mi SSE 9.2 mph - N/A Fog Fog
9:12 AM 48.2 °F - 48.2 °F 100% 29.61 in 0.2 mi SE 11.5 mph - N/A Fog Fog
9:23 AM 48.2 °F - 48.2 °F 100% 29.61 in 0.2 mi SE 9.2 mph - N/A Fog Fog
9:53 AM 50.0 °F - 50.0 °F 100% 29.60 in 0.2 mi SE 5.8 mph - N/A Fog Fog
10:04 AM 51.8 °F - 51.8 °F 100% 29.60 in 0.5 mi SE 6.9 mph - N/A Fog Fog
10:39 AM 53.6 °F - 51.8 °F 94% 29.59 in 3.0 mi SE 8.1 mph - 0.01 in   Overcast
10:53 AM 54.0 °F - 53.1 °F 97% 29.59 in 3.0 mi SSE 8.1 mph - 0.01 in   Overcast
11:13 AM 57.2 °F - 53.6 °F 88% 29.58 in 9.0 mi South 12.7 mph 19.6 mph N/A   Overcast
11:53 AM 61.0 °F - 51.1 °F 70% 29.57 in 10.0 mi South 19.6 mph 25.3 mph N/A   Mostly Cloudy
12:00 PM 60.8 °F - 51.8 °F 72% 29.57 in 10.0 mi South 18.4 mph 26.5 mph N/A   Mostly Cloudy
12:53 PM 64.9 °F - 50.0 °F 58% 29.52 in 10.0 mi South 20.7 mph - N/A   Partly Cloudy
1:53 PM 63.0 °F - 51.1 °F 65% 29.50 in 10.0 mi SSE 15.0 mph 26.5 mph N/A   Mostly Cloudy
2:34 PM 46.4 °F 38.7 °F 39.2 °F 76% 29.53 in 10.0 mi NNW 20.7 mph 32.2 mph N/A   Overcast
2:43 PM 44.6 °F 34.6 °F 39.2 °F 81% 29.53 in 10.0 mi North 31.1 mph 36.8 mph N/A   Overcast
2:53 PM 43.0 °F 32.7 °F 39.0 °F 86% 29.57 in 10.0 mi NNW 28.8 mph 39.1 mph N/A   Overcast
3:00 PM 42.8 °F 33.3 °F 39.2 °F 87% 29.54 in 5.0 mi North 24.2 mph 39.1 mph 0.01 in Rain Rain
3:21 PM 41.0 °F 31.1 °F 39.2 °F 93% 29.55 in 7.0 mi North 23.0 mph 33.4 mph 0.01 in Rain Light Rain
3:30 PM 39.2 °F 28.3 °F 39.2 °F 100% 29.56 in 1.8 mi North 25.3 mph 32.2 mph 0.04 in Rain Heavy Rain
3:40 PM 39.2 °F 28.5 °F 37.4 °F 93% 29.56 in 2.0 mi North 24.2 mph 36.8 mph 0.13 in Rain , Thunderstorm Light Thunderstorms and Rain
3:53 PM 39.0 °F 28.3 °F 37.0 °F 93% 29.60 in 1.5 mi NNW 24.2 mph 36.8 mph 0.20 in Rain , Thunderstorm Heavy Rain
4:27 PM 37.4 °F 25.6 °F 35.6 °F 93% 29.59 in 5.0 mi North 26.5 mph 40.3 mph 0.09 in Snow Light Snow
4:53 PM 37.0 °F 24.5 °F 35.1 °F 93% 29.64 in 10.0 mi North 29.9 mph 39.1 mph 0.09 in Rain Light Rain
5:08 PM 35.6 °F 23.7 °F 35.6 °F 100% 29.63 in 4.0 mi North 24.2 mph 34.5 mph 0.01 in Rain Rain
5:28 PM 35.6 °F 24.8 °F 33.8 °F 93% 29.65 in 2.0 mi North 19.6 mph 39.1 mph 0.04 in Snow Light Snow
5:53 PM 34.0 °F 22.1 °F 33.1 °F 96% 29.69 in 4.0 mi North 21.9 mph 32.2 mph 0.07 in Snow Light Snow
6:12 PM 33.8 °F 22.2 °F 32.0 °F 93% 29.70 in 7.0 mi North 20.7 mph 32.2 mph 0.00 in Rain Light Freezing Rain
6:36 PM 33.8 °F 21.6 °F 32.0 °F 93% 29.68 in 10.0 mi North 23.0 mph 36.8 mph 0.00 in   Overcast
6:53 PM 34.0 °F 22.4 °F 32.0 °F 92% 29.73 in 10.0 mi North 20.7 mph 38.0 mph 0.00 in   Overcast
7:27 PM 33.8 °F 21.9 °F 30.2 °F 87% 29.71 in 10.0 mi North 21.9 mph 33.4 mph N/A   Overcast
7:53 PM 33.1 °F 19.1 °F 30.0 °F 89% 29.75 in 10.0 mi North 29.9 mph 38.0 mph N/A   Overcast
8:53 PM 32.0 °F 19.2 °F 28.9 °F 88% 29.79 in 10.0 mi North 23.0 mph 34.5 mph N/A   Overcast
9:53 PM 30.9 °F 16.2 °F 28.9 °F 92% 29.81 in 10.0 mi North 29.9 mph 38.0 mph N/A   Overcast
10:53 PM 30.9 °F 16.9 °F 28.9 °F 92% 29.81 in 6.0 mi North 26.5 mph 36.8 mph N/A   Overcast
11:53 PM 30.9 °F 17.5 °F 28.0 °F 89% 29.81 in 9.0 mi North 24.2 mph 34.5 mph N/A   Overcast